SM6PGP-2 Weather Reports


Display with metric or nautical units.
time (UTC)temp
F
wind
direction
speed
MPH
gust
MPH
rain 1hr
in
rain 24hr
in
rain mn
in
humidity
%
barometer
mb
20200814143355 81 225 13.0 15.0 0.00 0.00 0.00 31 1013.5
20200814142849 81 225 5.0 12.0 0.00 0.00 0.00 31 1013.5
20200814142344 81 211 12.0 13.0 0.00 0.00 0.00 32 1013.6
20200814141839 81 225 11.0 11.0 0.00 0.00 0.00 33 1013.4
20200814141334 81 225 6.0 9.0 0.00 0.00 0.00 34 1013.6
20200814140829 81 225 6.0 10.0 0.00 0.00 0.00 34 1013.6
20200814140324 81 225 6.0 13.0 0.00 0.00 0.00 35 1013.6
20200814135818 81 261 6.0 12.0 0.00 0.00 0.00 35 1013.6
20200814135315 81 234 9.0 12.0 0.00 0.00 0.00 33 1013.7
20200814134808 81 229 5.0 11.0 0.00 0.00 0.00 35 1013.7
20200814134303 82 247 6.0 12.0 0.00 0.00 0.00 33 1013.8
20200814133759 82 247 9.0 12.0 0.00 0.00 0.00 34 1013.7
20200814133252 82 247 3.0 15.0 0.00 0.00 0.00 33 1013.8
20200814132747 82 261 12.0 15.0 0.00 0.00 0.00 32 1013.7
20200814132242 81 229 14.0 16.0 0.00 0.00 0.00 34 1013.8
20200814131737 81 270 15.0 17.0 0.00 0.00 0.00 35 1013.8
20200814131231 81 243 7.0 13.0 0.00 0.00 0.00 34 1013.7
20200814130726 82 243 9.0 17.0 0.00 0.00 0.00 32 1013.7
20200814130221 82 225 6.0 10.0 0.00 0.00 0.00 34 1013.7
20200814125716 82 279 6.0 11.0 0.00 0.00 0.00 34 1013.8
20200814125211 82 247 14.0 17.0 0.00 0.00 0.00 32 1013.8
20200814124705 82 229 14.0 14.0 0.00 0.00 0.00 31 1013.7
20200814124200 81 225 3.0 9.0 0.00 0.00 0.00 33 1013.8
20200814123655 81 261 9.0 12.0 0.00 0.00 0.00 34 1013.8
20200814123150 81 225 6.0 8.0 0.00 0.00 0.00 32 1013.8
20200814122645 81 189 8.0 10.0 0.00 0.00 0.00 34 1013.9
20200814122140 81 202 7.0 12.0 0.00 0.00 0.00 34 1014.0
20200814121634 81 270 9.0 11.0 0.00 0.00 0.00 34 1014.0
20200814121129 81 180 11.0 12.0 0.00 0.00 0.00 33 1014.0
20200814120625 81 193 8.0 13.0 0.00 0.00 0.00 35 1014.0
20200814120119 81 180 3.0 10.0 0.00 0.00 0.00 38 1014.1
20200814115616 81 225 11.0 12.0 0.00 0.00 0.00 34 1014.0
20200814115110 81 202 9.0 10.0 0.00 0.00 0.00 37 1014.0
20200814114603 81 180 6.0 10.0 0.00 0.00 0.00 38 1014.1
20200814114100 80 180 6.0 8.0 0.00 0.00 0.00 37 1014.1
20200814113554 80 225 8.0 12.0 0.00 0.00 0.00 39 1014.2
20200814113048 79 184 9.0 11.0 0.00 0.00 0.00 37 1014.3
20200814112605 79 180 10.0 10.0 0.00 0.00 0.00 37 1014.2
20200814112038 79 180 12.0 12.0 0.00 0.00 0.00 37 1014.2
20200814111532 79 202 8.0 13.0 0.00 0.00 0.00 41 1014.3
20200814111031 79 171 10.0 13.0 0.00 0.00 0.00 41 1014.3
20200814110523 79 180 9.0 12.0 0.00 0.00 0.00 41 1014.2
20200814110016 79 180 12.0 12.0 0.00 0.00 0.00 42 1014.2
20200814105540 79 180 9.0 13.0 0.00 0.00 0.00 41 1014.2
20200814105012 79 180 8.0 11.0 0.00 0.00 0.00 44 1014.2
20200814104509 79 180 9.0 10.0 0.00 0.00 0.00 43 1014.1
20200814103956 79 180 11.0 12.0 0.00 0.00 0.00 42 1014.1
20200814103450 78 180 8.0 11.0 0.00 0.00 0.00 44 1014.1
20200814102946 78 157 9.0 13.0 0.00 0.00 0.00 45 1014.1
20200814102443 78 180 7.0 12.0 0.00 0.00 0.00 44 1014.1
20200814101935 78 180 8.0 13.0 0.00 0.00 0.00 45 1014.1
20200814101430 78 139 8.0 14.0 0.00 0.00 0.00 47 1014.2
20200814100925 78 175 6.0 13.0 0.00 0.00 0.00 48 1014.2
20200814100419 78 180 9.0 12.0 0.00 0.00 0.00 47 1014.2
20200814095915 78 180 10.0 14.0 0.00 0.00 0.00 47 1014.2
20200814095410 78 180 10.0 12.0 0.00 0.00 0.00 44 1014.2
20200814094356 78 180 10.0 10.0 0.00 0.00 0.00 45 1014.2
20200814093850 78 180 7.0 9.0 0.00 0.00 0.00 47 1014.3
20200814093352 78 171 7.0 9.0 0.00 0.00 0.00 47 1014.3
20200814092840 78 198 6.0 9.0 0.00 0.00 0.00 50 1014.3
20200814092336 78 175 5.0 9.0 0.00 0.00 0.00 51 1014.4
20200814091830 78 157 5.0 10.0 0.00 0.00 0.00 48 1014.4
20200814091324 78 189 10.0 12.0 0.00 0.00 0.00 51 1014.4
20200814090821 78 180 8.0 14.0 0.00 0.00 0.00 50 1014.3
20200814090315 78 171 13.0 13.0 0.00 0.00 0.00 50 1014.3
20200814085809 78 157 8.0 11.0 0.00 0.00 0.00 53 1014.3
20200814085305 78 148 4.0 12.0 0.00 0.00 0.00 55 1014.3
20200814084759 78 180 5.0 7.0 0.00 0.00 0.00 53 1014.3
20200814084254 78 166 6.0 7.0 0.00 0.00 0.00 51 1014.3
20200814083748 78 157 4.0 9.0 0.00 0.00 0.00 53 1014.3
20200814083243 78 180 7.0 7.0 0.00 0.00 0.00 54 1014.4
20200814082738 77 189 4.0 6.0 0.00 0.00 0.00 54 1014.4
20200814082233 77 180 5.0 6.0 0.00 0.00 0.00 56 1014.4
20200814081728 77 189 5.0 6.0 0.00 0.00 0.00 57 1014.5
20200814081222 77 180 4.0 6.0 0.00 0.00 0.00 57 1014.4
20200814080717 77 180 5.0 5.0 0.00 0.00 0.00 58 1014.5
20200814080212 76 171 2.0 5.0 0.00 0.00 0.00 61 1014.4
20200814075708 76 180 3.0 8.0 0.00 0.00 0.00 61 1014.4
20200814075202 75 135 2.0 4.0 0.00 0.00 0.00 62 1014.5
20200814074657 74 180 3.0 5.0 0.00 0.00 0.00 62 1014.5
20200814074152 74 90 2.0 7.0 0.00 0.00 0.00 63 1014.5
20200814073646 73 171 2.0 6.0 0.00 0.00 0.00 65 1014.4
20200814073141 73 211 4.0 7.0 0.00 0.00 0.00 64 1014.4
20200814072637 73 180 4.0 8.0 0.00 0.00 0.00 65 1014.4
20200814072131 74 180 4.0 7.0 0.00 0.00 0.00 64 1014.5
20200814071625 74 162 5.0 7.0 0.00 0.00 0.00 64 1014.4
20200814071121 74 180 3.0 3.0 0.00 0.00 0.00 66 1014.5
20200814070615 73 180 2.0 4.0 0.00 0.00 0.00 65 1014.5
20200814070110 73 135 1.0 2.0 0.00 0.00 0.00 66 1014.5
20200814065605 73 135 0.0 1.0 0.00 0.00 0.00 66 1014.4
20200814065059 72 45 2.0 2.0 0.00 0.00 0.00 68 1014.5
20200814064555 71 45 0.0 0.0 0.00 0.00 0.00 68 1014.4
20200814064049 71 45 0.0 0.0 0.00 0.00 0.00 69 1014.4
20200814063544 70 45 0.0 1.0 0.00 0.00 0.00 71 1014.4
20200814063038 69 45 0.0 0.0 0.00 0.00 0.00 72 1014.3
20200814062534 68 45 0.0 2.0 0.00 0.00 0.00 73 1014.4
20200814062029 67 45 0.0 1.0 0.00 0.00 0.00 74 1014.4
20200814061523 67 45 0.0 2.0 0.00 0.00 0.00 75 1014.4
20200814061020 66 45 0.0 0.0 0.00 0.00 0.00 77 1014.5
20200814060513 65 45 0.0 0.0 0.00 0.00 0.00 78 1014.4
20200814060017 64 45 0.0 0.0 0.00 0.00 0.00 80 1014.5
20200814055502 63 45 1.0 1.0 0.00 0.00 0.00 81 1014.5
20200814054957 63 45 0.0 2.0 0.00 0.00 0.00 83 1014.5
20200814054453 62 45 0.0 0.0 0.00 0.00 0.00 85 1014.5
20200814053947 61 45 0.0 0.0 0.00 0.00 0.00 86 1014.5
20200814052938 60 45 0.0 2.0 0.00 0.00 0.00 90 1014.5
20200814051926 58 337 1.0 3.0 0.00 0.00 0.00 90 1014.6
20200814051420 57 337 1.0 3.0 0.00 0.00 0.00 91 1014.6
20200814050916 56 337 1.0 3.0 0.00 0.00 0.00 91 1014.7
20200814045905 54 337 0.0 4.0 0.00 0.00 0.00 91 1014.7
20200814044854 53 337 3.0 3.0 0.00 0.00 0.00 90 1014.6
20200814044349 53 337 2.0 2.0 0.00 0.00 0.00 91 1014.5
20200814043845 53 337 1.0 2.0 0.00 0.00 0.00 90 1014.5
20200814043339 53 337 1.0 3.0 0.00 0.00 0.00 91 1014.6
20200814042835 53 337 1.0 3.0 0.00 0.00 0.00 89 1014.5
20200814041823 52 337 1.0 2.0 0.00 0.00 0.00 89 1014.5
20200814041318 52 337 2.0 2.0 0.00 0.00 0.00 89 1014.5
20200814040824 53 337 0.0 1.0 0.00 0.00 0.00 90 1014.6
20200814040308 53 337 2.0 4.0 0.00 0.00 0.00 91 1014.6
20200814035805 53 337 0.0 5.0 0.00 0.00 0.00 89 1014.6
20200814035257 53 337 3.0 3.0 0.00 0.00 0.00 89 1014.6
20200814034752 53 0 4.0 4.0 0.00 0.00 0.00 89 1014.7
20200814033743 53 45 1.0 1.0 0.00 0.00 0.00 89 1014.5
20200814033237 53 45 0.0 2.0 0.00 0.00 0.00 89 1014.6
20200814032731 53 45 0.0 3.0 0.00 0.00 0.00 90 1014.7
20200814032227 53 0 2.0 3.0 0.00 0.00 0.00 89 1014.7
20200814031721 53 346 2.0 3.0 0.00 0.00 0.00 88 1014.7
20200814031216 53 346 2.0 4.0 0.00 0.00 0.00 90 1014.8
20200814030710 53 0 2.0 4.0 0.00 0.00 0.00 89 1014.7
20200814030207 54 346 2.0 3.0 0.00 0.00 0.00 89 1014.8
20200814025700 54 0 3.0 3.0 0.00 0.00 0.00 89 1014.9
20200814025155 54 0 3.0 4.0 0.00 0.00 0.00 89 1014.8
20200814024650 54 0 2.0 3.0 0.00 0.00 0.00 90 1015.0
20200814024145 54 346 1.0 2.0 0.00 0.00 0.00 88 1015.0
20200814023639 54 0 2.0 3.0 0.00 0.00 0.00 88 1015.0
20200814023134 54 0 2.0 2.0 0.00 0.00 0.00 89 1015.0
20200814022629 54 0 1.0 3.0 0.00 0.00 0.00 88 1014.9
20200814022125 54 346 3.0 3.0 0.00 0.00 0.00 89 1015.0
20200814021619 54 0 1.0 2.0 0.00 0.00 0.00 88 1014.9
20200814021113 54 0 1.0 3.0 0.00 0.00 0.00 88 1014.9
20200814020612 55 0 2.0 2.0 0.00 0.00 0.00 89 1015.0
20200814020103 55 45 0.0 1.0 0.00 0.00 0.00 89 1014.9
20200814015558 55 0 0.0 2.0 0.00 0.00 0.00 88 1015.0
20200814015052 55 45 1.0 2.0 0.00 0.00 0.00 88 1015.0
20200814014547 55 45 2.0 3.0 0.00 0.00 0.00 88 1015.0
20200814014047 55 40 1.0 3.0 0.00 0.00 0.00 89 1015.1
20200814013537 55 49 1.0 2.0 0.00 0.00 0.00 87 1015.0
20200814013033 55 45 0.0 1.0 0.00 0.00 0.00 88 1015.1
20200814012526 55 319 2.0 3.0 0.00 0.00 0.00 88 1015.1
20200814012021 55 0 2.0 3.0 0.00 0.00 0.00 87 1015.2
20200814011517 56 0 3.0 3.0 0.00 0.00 0.00 89 1015.2
20200814011011 56 0 3.0 3.0 0.00 0.00 0.00 87 1015.1
20200814010509 56 333 3.0 3.0 0.00 0.00 0.00 89 1015.2
20200814010000 56 346 2.0 3.0 0.00 0.00 0.00 90 1015.2
20200814005455 56 346 1.0 1.0 0.00 0.00 0.00 89 1015.2
20200814004951 56 0 1.0 2.0 0.00 0.00 0.00 88 1015.2
20200814004445 56 346 1.0 1.0 0.00 0.00 0.00 88 1015.2
20200814003940 56 333 2.0 2.0 0.00 0.00 0.00 88 1015.3
20200813230810 57 0 0.0 0.0 0.00 0.00 0.00 86 1015.5
20200813230301 56 0 1.0 1.0 0.00 0.00 0.00 85 1015.5
20200813225756 56 0 0.0 0.0 0.00 0.00 0.00 85 1015.5
20200813225251 57 346 0.0 0.0 0.00 0.00 0.00 86 1015.4
20200813224745 57 0 0.0 1.0 0.00 0.00 0.00 85 1015.5
20200813224240 57 346 0.0 0.0 0.00 0.00 0.00 84 1015.5
20200813223735 57 0 0.0 0.0 0.00 0.00 0.00 85 1015.5
20200813223231 57 346 0.0 0.0 0.00 0.00 0.00 84 1015.7
20200813222725 57 0 0.0 0.0 0.00 0.00 0.00 85 1015.6
20200813222220 58 0 0.0 0.0 0.00 0.00 0.00 84 1015.5
20200813221714 58 0 0.0 0.0 0.00 0.00 0.00 84 1015.6
20200813221209 58 333 0.0 1.0 0.00 0.00 0.00 85 1015.6
20200813220704 58 0 1.0 2.0 0.00 0.00 0.00 85 1015.6
20200813220159 58 45 1.0 2.0 0.00 0.00 0.00 85 1015.6
20200813215653 58 45 1.0 3.0 0.00 0.00 0.00 84 1015.5
20200813215149 58 45 1.0 1.0 0.00 0.00 0.00 85 1015.6
20200813214645 58 90 0.0 0.0 0.00 0.00 0.00 84 1015.5
20200813214138 58 85 0.0 0.0 0.00 0.00 0.00 83 1015.5
20200813213633 58 90 0.0 0.0 0.00 0.00 0.00 83 1015.5
20200813213127 59 90 0.0 0.0 0.00 0.00 0.00 81 1015.5
20200813212622 59 90 0.0 0.0 0.00 0.00 0.00 82 1015.5
20200813212117 59 90 0.0 2.0 0.00 0.00 0.00 83 1015.4
20200813211612 59 45 0.0 2.0 0.00 0.00 0.00 83 1015.5
20200813211107 59 90 0.0 0.0 0.00 0.00 0.00 83 1015.6
20200813210601 59 0 2.0 2.0 0.00 0.00 0.00 82 1015.5
20200813210058 59 45 0.0 2.0 0.00 0.00 0.00 83 1015.5
20200813205551 59 45 1.0 2.0 0.00 0.00 0.00 83 1015.5
20200813205046 59 45 2.0 2.0 0.00 0.00 0.00 84 1015.5
20200813204542 59 135 0.0 0.0 0.00 0.00 0.00 83 1015.5
20200813204035 59 135 0.0 0.0 0.00 0.00 0.00 83 1015.5
20200813202517 60 135 0.0 0.0 0.00 0.00 0.00 82 1015.4
20200813202012 60 135 0.0 0.0 0.00 0.00 0.00 81 1015.5
20200813201507 60 135 0.0 0.0 0.00 0.00 0.00 79 1015.6
20200813201003 60 135 0.0 0.0 0.00 0.00 0.00 79 1015.7
20200813200456 60 135 0.0 0.0 0.00 0.00 0.00 78 1015.8
20200813195951 61 135 0.0 0.0 0.00 0.00 0.00 78 1015.8
20200813195446 61 135 0.0 0.0 0.00 0.00 0.00 77 1015.7
20200813194940 61 135 0.0 0.0 0.00 0.00 0.00 77 1015.9
20200813194435 61 135 0.0 0.0 0.00 0.00 0.00 76 1015.8
20200813193930 61 135 0.0 0.0 0.00 0.00 0.00 75 1015.9
20200813193426 62 135 0.0 0.0 0.00 0.00 0.00 75 1015.9
20200813192920 62 135 1.0 1.0 0.00 0.00 0.00 74 1015.9
20200813192450 63 135 0.0 0.0 0.00 0.00 0.00 73 1015.8
20200813191909 63 135 0.0 0.0 0.00 0.00 0.00 71 1015.8
20200813191404 64 135 0.0 0.0 0.00 0.00 0.00 70 1015.8
20200813190859 65 135 0.0 1.0 0.00 0.00 0.00 68 1015.7
20200813190356 65 135 0.0 0.0 0.00 0.00 0.00 66 1015.7
20200813185852 65 135 1.0 1.0 0.00 0.00 0.00 66 1015.8
20200813185347 66 45 0.0 0.0 0.00 0.00 0.00 64 1015.8
20200813184839 67 45 0.0 0.0 0.00 0.00 0.00 62 1015.7
20200813184333 67 45 0.0 0.0 0.00 0.00 0.00 61 1015.7
20200813183828 68 45 0.0 0.0 0.00 0.00 0.00 61 1015.7
20200813183323 68 45 0.0 0.0 0.00 0.00 0.00 59 1015.8
20200813182817 69 45 0.0 0.0 0.00 0.00 0.00 59 1015.8
20200813182315 69 0 0.0 1.0 0.00 0.00 0.00 58 1015.8
20200813181808 69 0 0.0 2.0 0.00 0.00 0.00 58 1015.8
20200813181304 70 247 1.0 2.0 0.00 0.00 0.00 57 1015.9
20200813180800 70 90 0.0 0.0 0.00 0.00 0.00 56 1015.8
20200813180252 70 225 0.0 2.0 0.00 0.00 0.00 55 1015.8
20200813175746 71 247 0.0 0.0 0.00 0.00 0.00 56 1015.7
20200813175241 71 247 0.0 0.0 0.00 0.00 0.00 56 1015.7
20200813174737 71 270 0.0 2.0 0.00 0.00 0.00 55 1015.7
20200813174231 72 270 2.0 2.0 0.00 0.00 0.00 51 1015.7
20200813173727 72 270 3.0 3.0 0.00 0.00 0.00 51 1015.7
20200813173220 73 180 0.0 3.0 0.00 0.00 0.00 49 1015.7
20200813172715 74 225 2.0 4.0 0.00 0.00 0.00 48 1015.6
20200813171705 74 315 2.0 3.0 0.00 0.00 0.00 50 1015.6
20200813171200 74 225 1.0 5.0 0.00 0.00 0.00 48 1015.7
20200813170654 74 243 4.0 5.0 0.00 0.00 0.00 48 1015.7
20200813170150 75 225 1.0 2.0 0.00 0.00 0.00 46 1015.8
20200813165645 76 261 3.0 5.0 0.00 0.00 0.00 43 1015.7
20200813165139 77 225 3.0 5.0 0.00 0.00 0.00 41 1015.8
20200813164634 77 265 3.0 5.0 0.00 0.00 0.00 43 1015.8
20200813164130 77 337 1.0 5.0 0.00 0.00 0.00 44 1015.9
20200813163624 77 238 4.0 5.0 0.00 0.00 0.00 43 1015.9
20200813163118 77 270 5.0 6.0 0.00 0.00 0.00 44 1015.9
20200813162613 77 180 3.0 6.0 0.00 0.00 0.00 45 1016.0
20200813162108 77 112 1.0 6.0 0.00 0.00 0.00 44 1015.9
20200813161602 77 225 10.0 10.0 0.00 0.00 0.00 45 1016.1
20200813161059 77 225 6.0 13.0 0.00 0.00 0.00 43 1016.1
20200813160552 78 225 6.0 13.0 0.00 0.00 0.00 42 1016.1
20200813160048 78 211 3.0 11.0 0.00 0.00 0.00 45 1016.1
20200813155542 78 261 3.0 6.0 0.00 0.00 0.00 45 1016.1
20200813154531 78 225 4.0 5.0 0.00 0.00 0.00 43 1016.1
20200813154026 78 225 0.0 10.0 0.00 0.00 0.00 44 1016.2
20200813153518 78 315 4.0 14.0 0.00 0.00 0.00 43 1016.2
20200813153027 79 0 6.0 11.0 0.00 0.00 0.00 44 1016.2
20200813152507 79 270 6.0 7.0 0.00 0.00 0.00 42 1016.3
20200813152006 79 252 8.0 9.0 0.00 0.00 0.00 43 1016.4
20200813151457 79 252 4.0 7.0 0.00 0.00 0.00 43 1016.4
20200813150952 79 315 8.0 9.0 0.00 0.00 0.00 43 1016.5
20200813150448 79 225 7.0 9.0 0.00 0.00 0.00 44 1016.5
20200813145941 79 301 3.0 9.0 0.00 0.00 0.00 45 1016.5
20200813145437 78 252 6.0 16.0 0.00 0.00 0.00 46 1016.5
20200813144932 78 265 4.0 8.0 0.00 0.00 0.00 48 1016.5
20200813144426 78 243 10.0 17.0 0.00 0.00 0.00 44 1016.6
20200813143921 78 243 6.0 11.0 0.00 0.00 0.00 45 1016.5